| time (UTC) | temp C | wind direction | speed KPH | gust KPH | rain 1hr cm | rain 24hr cm | rain mn cm | humidity % | barometer mb |
| 20260506193525 | 27 | 172 | 8.0 | 16.1 | 0.00 | 0.00 | 0.00 | 91 | 1010.3 |
| 20260506193044 | 27 | 156 | 8.0 | 16.1 | 0.00 | 0.00 | 0.00 | 90 | 1010.4 |
| 20260506192529 | 26 | 148 | 6.4 | 16.1 | 0.00 | 0.00 | 0.00 | 91 | 1010.5 |
| 20260506192031 | 26 | 157 | 8.0 | 16.1 | 0.00 | 0.00 | 0.00 | 92 | 1010.4 |
| 20260506191545 | 26 | 171 | 8.0 | 12.9 | 0.00 | 0.00 | 0.00 | 92 | 1010.6 |
| 20260506191030 | 26 | 119 | 4.8 | 11.3 | 0.00 | 0.00 | 0.00 | 92 | 1010.6 |
| 20260506190529 | 26 | 159 | 6.4 | 9.7 | 0.00 | 0.00 | 0.00 | 92 | 1010.6 |
| 20260506190052 | 26 | 153 | 6.4 | 11.3 | 0.00 | 0.00 | 0.00 | 92 | 1010.7 |
| 20260506185530 | 26 | 154 | 4.8 | 11.3 | 0.00 | 0.00 | 0.00 | 91 | 1010.7 |
| 20260506185026 | 26 | 142 | 4.8 | 9.7 | 0.00 | 0.00 | 0.00 | 91 | 1010.8 |
| 20260506184550 | 26 | 146 | 3.2 | 9.7 | 0.00 | 0.00 | 0.00 | 91 | 1010.8 |
| 20260506184026 | 26 | 143 | 4.8 | 9.7 | 0.00 | 0.00 | 0.00 | 91 | 1010.7 |
| 20260506183526 | 26 | 150 | 4.8 | 11.3 | 0.00 | 0.00 | 0.00 | 91 | 1010.8 |
| 20260506183041 | 26 | 157 | 6.4 | 11.3 | 0.00 | 0.00 | 0.00 | 91 | 1010.7 |
| 20260506182525 | 26 | 160 | 4.8 | 17.7 | 0.00 | 0.00 | 0.00 | 91 | 1010.8 |
| 20260506182029 | 27 | 198 | 4.8 | 17.7 | 0.00 | 0.00 | 0.00 | 91 | 1011.0 |
| 20260506181540 | 27 | 165 | 3.2 | 11.3 | 0.00 | 0.00 | 0.00 | 91 | 1010.9 |
| 20260506181029 | 27 | 157 | 1.6 | 14.5 | 0.00 | 0.00 | 0.00 | 91 | 1011.1 |
| 20260506180529 | 26 | 156 | 6.4 | 14.5 | 0.00 | 0.00 | 0.00 | 91 | 1011.1 |
| 20260506180046 | 26 | 165 | 4.8 | 14.5 | 0.00 | 0.00 | 0.00 | 92 | 1011.0 |
| 20260506175526 | 26 | 165 | 4.8 | 14.5 | 0.00 | 0.00 | 0.00 | 91 | 1011.0 |
| 20260506175028 | 26 | 142 | 6.4 | 12.9 | 0.00 | 0.00 | 0.00 | 91 | 1011.1 |
| 20260506174540 | 26 | 142 | 6.4 | 14.5 | 0.00 | 0.00 | 0.00 | 91 | 1011.2 |
| 20260506174028 | 26 | 140 | 6.4 | 14.5 | 0.00 | 0.00 | 0.00 | 91 | 1011.3 |
| 20260506173529 | 26 | 165 | 6.4 | 14.5 | 0.00 | 0.00 | 0.00 | 91 | 1011.2 |
| 20260506173108 | 26 | 171 | 4.8 | 16.1 | 0.00 | 0.00 | 0.00 | 91 | 1011.3 |
| 20260506172528 | 26 | 166 | 6.4 | 16.1 | 0.00 | 0.00 | 0.00 | 90 | 1011.2 |
| 20260506172026 | 27 | 167 | 6.4 | 16.1 | 0.00 | 0.00 | 0.00 | 90 | 1011.4 |
| 20260506171547 | 27 | 153 | 6.4 | 14.5 | 0.00 | 0.00 | 0.00 | 90 | 1011.5 |
| 20260506171029 | 27 | 162 | 4.8 | 14.5 | 0.00 | 0.00 | 0.00 | 92 | 1011.6 |
| 20260506170525 | 27 | 169 | 3.2 | 16.1 | 0.00 | 0.00 | 0.00 | 92 | 1011.5 |
| 20260506170047 | 27 | 172 | 3.2 | 16.1 | 0.00 | 0.00 | 0.00 | 92 | 1011.4 |
| 20260506165526 | 26 | 156 | 6.4 | 12.9 | 0.00 | 0.00 | 0.00 | 91 | 1011.5 |
| 20260506165026 | 26 | 142 | 6.4 | 12.9 | 0.00 | 0.00 | 0.00 | 92 | 1011.4 |
| 20260506164555 | 26 | 162 | 3.2 | 11.3 | 0.00 | 0.00 | 0.00 | 92 | 1011.5 |
| 20260506164027 | 26 | 157 | 4.8 | 14.5 | 0.00 | 0.00 | 0.00 | 92 | 1011.4 |
| 20260506163532 | 26 | 140 | 6.4 | 14.5 | 0.00 | 0.00 | 0.00 | 92 | 1011.3 |
| 20260506163047 | 26 | 161 | 6.4 | 19.3 | 0.00 | 0.00 | 0.00 | 93 | 1011.4 |
| 20260506162526 | 26 | 144 | 9.7 | 19.3 | 0.00 | 0.00 | 0.00 | 93 | 1011.4 |
| 20260506162033 | 26 | 153 | 6.4 | 14.5 | 0.00 | 0.00 | 0.00 | 93 | 1011.2 |
| 20260506161541 | 26 | 164 | 8.0 | 16.1 | 0.00 | 0.00 | 0.00 | 93 | 1011.3 |
| 20260506161025 | 26 | 169 | 3.2 | 17.7 | 0.00 | 0.00 | 0.00 | 93 | 1011.3 |
| 20260506160528 | 26 | 182 | 8.0 | 17.7 | 0.00 | 0.00 | 0.00 | 93 | 1011.4 |
| 20260506160049 | 26 | 190 | 6.4 | 17.7 | 0.00 | 0.00 | 0.00 | 94 | 1011.2 |
| 20260506155528 | 26 | 155 | 1.6 | 14.5 | 0.00 | 0.00 | 0.00 | 95 | 1011.2 |
| 20260506155026 | 26 | 147 | 4.8 | 14.5 | 0.00 | 0.00 | 0.00 | 95 | 1011.0 |
| 20260506154552 | 26 | 154 | 1.6 | 9.7 | 0.00 | 0.00 | 0.00 | 96 | 1010.8 |
| 20260506154026 | 25 | 157 | 4.8 | 9.7 | 0.00 | 0.00 | 0.00 | 96 | 1010.8 |
| 20260506153528 | 25 | 159 | 4.8 | 9.7 | 0.00 | 0.00 | 0.00 | 96 | 1010.9 |
| 20260506153047 | 25 | 157 | 3.2 | 8.0 | 0.00 | 0.00 | 0.00 | 97 | 1010.9 |
| 20260506152528 | 25 | 159 | 1.6 | 6.4 | 0.00 | 0.00 | 0.00 | 97 | 1010.8 |
| 20260506152026 | 25 | 156 | 1.6 | 8.0 | 0.00 | 0.00 | 0.00 | 97 | 1010.7 |
| 20260506151548 | 25 | 148 | 1.6 | 8.0 | 0.00 | 0.00 | 0.00 | 97 | 1010.7 |
| 20260506151030 | 25 | 152 | 1.6 | 11.3 | 0.00 | 0.00 | 0.00 | 96 | 1010.5 |
| 20260506150533 | 25 | 156 | 3.2 | 11.3 | 0.00 | 0.00 | 0.00 | 96 | 1010.6 |
| 20260506150043 | 25 | 153 | 4.8 | 9.7 | 0.00 | 0.00 | 0.00 | 97 | 1010.3 |
| 20260506145526 | 25 | 162 | 3.2 | 9.7 | 0.00 | 0.00 | 0.00 | 97 | 1010.3 |
| 20260506145029 | 25 | 157 | 1.6 | 8.0 | 0.00 | 0.00 | 0.00 | 97 | 1010.2 |
| 20260506144544 | 25 | 167 | 3.2 | 9.7 | 0.00 | 0.00 | 0.00 | 97 | 1010.2 |
| 20260506144028 | 25 | 165 | 1.6 | 9.7 | 0.00 | 0.00 | 0.00 | 97 | 1010.2 |
| 20260506143528 | 25 | 169 | 3.2 | 9.7 | 0.00 | 0.00 | 0.00 | 97 | 1010.3 |
| 20260506143043 | 25 | 163 | 3.2 | 6.4 | 0.00 | 0.00 | 0.00 | 97 | 1010.2 |
| 20260506142526 | 25 | 140 | 0.0 | 4.8 | 0.00 | 0.00 | 0.00 | 97 | 1010.2 |
| 20260506142026 | 25 | 140 | 1.6 | 4.8 | 0.00 | 0.00 | 0.00 | 97 | 1010.2 |
| 20260506141542 | 25 | 138 | 0.0 | 4.8 | 0.00 | 0.00 | 0.00 | 97 | 1010.4 |
| 20260506141029 | 25 | 138 | 1.6 | 4.8 | 0.00 | 0.00 | 0.00 | 97 | 1010.5 |
| 20260506140526 | 25 | 138 | 3.2 | 6.4 | 0.00 | 0.00 | 0.00 | 97 | 1010.6 |
| 20260506140043 | 25 | 159 | 1.6 | 6.4 | 0.00 | 0.00 | 0.00 | 97 | 1010.5 |
| 20260506135526 | 25 | 159 | 1.6 | 8.0 | 0.00 | 0.00 | 0.00 | 97 | 1010.5 |
| 20260506135025 | 25 | 159 | 3.2 | 8.0 | 0.00 | 0.00 | 0.00 | 97 | 1010.5 |
| 20260506134542 | 25 | 156 | 1.6 | 8.0 | 0.00 | 0.00 | 0.00 | 97 | 1010.4 |
| 20260506134025 | 25 | 151 | 1.6 | 3.2 | 0.00 | 0.00 | 0.00 | 98 | 1010.5 |
| 20260506133528 | 25 | 0 | 0.0 | 0.0 | 0.00 | 0.00 | 0.00 | 98 | 1010.6 |
| 20260506133041 | 25 | 0 | 0.0 | 3.2 | 0.00 | 0.00 | 0.00 | 98 | 1010.5 |
| 20260506132528 | 25 | 0 | 0.0 | 3.2 | 0.00 | 0.00 | 0.00 | 98 | 1010.7 |
| 20260506132029 | 25 | 0 | 0.0 | 3.2 | 0.00 | 0.00 | 0.00 | 98 | 1010.6 |
| 20260506131550 | 25 | 153 | 0.0 | 8.0 | 0.00 | 0.00 | 0.00 | 98 | 1010.6 |
| 20260506131026 | 25 | 153 | 0.0 | 8.0 | 0.00 | 0.00 | 0.00 | 98 | 1010.7 |
| 20260506130526 | 25 | 153 | 3.2 | 6.4 | 0.00 | 0.00 | 0.00 | 98 | 1010.7 |
| 20260506130057 | 24 | 157 | 1.6 | 6.4 | 0.00 | 0.00 | 0.00 | 98 | 1010.5 |
| 20260506125530 | 24 | 0 | 0.0 | 3.2 | 0.00 | 0.00 | 0.00 | 98 | 1010.5 |
| 20260506125029 | 24 | 0 | 1.6 | 4.8 | 0.00 | 0.00 | 0.00 | 98 | 1010.4 |
| 20260506124554 | 24 | 157 | 1.6 | 6.4 | 0.00 | 0.00 | 0.00 | 98 | 1010.3 |
| 20260506124026 | 24 | 157 | 3.2 | 6.4 | 0.00 | 0.00 | 0.00 | 98 | 1010.4 |
| 20260506123526 | 24 | 166 | 3.2 | 8.0 | 0.00 | 0.00 | 0.00 | 98 | 1010.4 |
| 20260506123045 | 24 | 148 | 3.2 | 9.7 | 0.00 | 0.00 | 0.00 | 98 | 1010.3 |
| 20260506122526 | 24 | 161 | 3.2 | 9.7 | 0.00 | 0.00 | 0.00 | 98 | 1010.3 |
| 20260506122026 | 24 | 155 | 4.8 | 8.0 | 0.00 | 0.00 | 0.00 | 98 | 1010.2 |
| 20260506121545 | 24 | 161 | 1.6 | 6.4 | 0.00 | 0.00 | 0.00 | 98 | 1010.2 |
| 20260506121028 | 24 | 167 | 0.0 | 6.4 | 0.00 | 0.00 | 0.00 | 98 | 1010.1 |
| 20260506120529 | 24 | 169 | 3.2 | 6.4 | 0.00 | 0.00 | 0.00 | 98 | 1010.0 |
| 20260506120041 | 24 | 149 | 0.0 | 4.8 | 0.00 | 0.00 | 0.00 | 98 | 1009.9 |
| 20260506115530 | 24 | 0 | 1.6 | 4.8 | 0.00 | 0.00 | 0.00 | 98 | 1009.8 |
| 20260506115028 | 24 | 149 | 1.6 | 4.8 | 0.00 | 0.00 | 0.00 | 98 | 1009.8 |
| 20260506114542 | 24 | 147 | 3.2 | 8.0 | 0.00 | 0.00 | 0.00 | 98 | 1009.7 |
| 20260506114030 | 24 | 144 | 1.6 | 8.0 | 0.00 | 0.00 | 0.00 | 98 | 1009.6 |
| 20260506113530 | 24 | 0 | 0.0 | 3.2 | 0.00 | 0.00 | 0.00 | 98 | 1009.6 |
| 20260506113050 | 24 | 162 | 1.6 | 3.2 | 0.00 | 0.00 | 0.00 | 98 | 1009.5 |
| 20260506112529 | 24 | 0 | 0.0 | 4.8 | 0.00 | 0.00 | 0.00 | 98 | 1009.5 |
| 20260506112029 | 24 | 179 | 1.6 | 4.8 | 0.00 | 0.00 | 0.00 | 99 | 1009.5 |
| 20260506111543 | 24 | 178 | 1.6 | 4.8 | 0.00 | 0.00 | 0.00 | 99 | 1009.5 |
| 20260506111029 | 24 | 0 | 0.0 | 6.4 | 0.00 | 0.00 | 0.00 | 99 | 1009.4 |
| 20260506110531 | 24 | 164 | 1.6 | 6.4 | 0.00 | 0.00 | 0.00 | 99 | 1009.6 |
| 20260506110053 | 24 | 169 | 0.0 | 3.2 | 0.00 | 0.00 | 0.00 | 98 | 1009.5 |
| 20260506105530 | 23 | 0 | 0.0 | 3.2 | 0.00 | 0.00 | 0.00 | 98 | 1009.6 |
| 20260506105031 | 23 | 169 | 0.0 | 3.2 | 0.00 | 0.00 | 0.00 | 98 | 1009.5 |
| 20260506104553 | 23 | 0 | 0.0 | 3.2 | 0.00 | 0.00 | 0.00 | 98 | 1009.4 |
| 20260506104028 | 23 | 0 | 0.0 | 3.2 | 0.00 | 0.00 | 0.00 | 98 | 1009.4 |
| 20260506103529 | 23 | 169 | 1.6 | 4.8 | 0.00 | 0.00 | 0.00 | 98 | 1009.4 |
| 20260506103055 | 23 | 169 | 1.6 | 8.0 | 0.00 | 0.00 | 0.00 | 98 | 1009.5 |
| 20260506102529 | 24 | 170 | 1.6 | 8.0 | 0.00 | 0.00 | 0.00 | 98 | 1009.4 |
| 20260506102029 | 24 | 157 | 1.6 | 4.8 | 0.00 | 0.00 | 0.00 | 98 | 1009.3 |
| 20260506101554 | 23 | 157 | 3.2 | 4.8 | 0.00 | 0.00 | 0.00 | 98 | 1009.2 |
| 20260506101030 | 23 | 0 | 0.0 | 3.2 | 0.00 | 0.00 | 0.00 | 98 | 1009.3 |
| 20260506100530 | 23 | 155 | 0.0 | 3.2 | 0.00 | 0.00 | 0.00 | 98 | 1009.2 |
| 20260506095529 | 23 | 0 | 0.0 | 6.4 | 0.00 | 0.00 | 0.00 | 98 | 1009.0 |
| 20260506095032 | 23 | 163 | 0.0 | 6.4 | 0.00 | 0.00 | 0.00 | 98 | 1009.0 |
| 20260506094543 | 23 | 167 | 0.0 | 3.2 | 0.00 | 0.00 | 0.00 | 97 | 1009.0 |
| 20260506094029 | 23 | 0 | 0.0 | 3.2 | 0.00 | 0.00 | 0.00 | 97 | 1009.1 |
| 20260506093529 | 23 | 171 | 0.0 | 3.2 | 0.00 | 0.00 | 0.00 | 97 | 1009.1 |
| 20260506093051 | 24 | 175 | 0.0 | 0.0 | 0.00 | 0.00 | 0.00 | 97 | 1009.2 |
| 20260506092530 | 24 | 0 | 0.0 | 1.6 | 0.00 | 0.00 | 0.00 | 97 | 1009.1 |
| 20260506092029 | 24 | 0 | 0.0 | 3.2 | 0.00 | 0.00 | 0.00 | 97 | 1009.1 |
| 20260506091548 | 24 | 0 | 1.6 | 4.8 | 0.00 | 0.00 | 0.00 | 97 | 1009.2 |
| 20260506091037 | 24 | 175 | 1.6 | 4.8 | 0.00 | 0.00 | 0.00 | 97 | 1009.2 |
| 20260506090528 | 24 | 185 | 1.6 | 6.4 | 0.00 | 0.00 | 0.00 | 97 | 1009.2 |
| 20260506090046 | 24 | 159 | 0.0 | 6.4 | 0.00 | 0.00 | 0.00 | 97 | 1009.2 |
| 20260506085531 | 24 | 0 | 0.0 | 6.4 | 0.00 | 0.00 | 0.00 | 97 | 1009.3 |
| 20260506085029 | 24 | 0 | 1.6 | 6.4 | 0.00 | 0.00 | 0.00 | 97 | 1009.3 |
| 20260506084605 | 24 | 157 | 1.6 | 8.0 | 0.00 | 0.00 | 0.00 | 97 | 1009.3 |
| 20260506084029 | 24 | 150 | 3.2 | 8.0 | 0.00 | 0.00 | 0.00 | 97 | 1009.3 |
| 20260506083529 | 24 | 150 | 3.2 | 6.4 | 0.00 | 0.00 | 0.00 | 97 | 1009.4 |
| 20260506083048 | 24 | 152 | 1.6 | 6.4 | 0.00 | 0.00 | 0.00 | 97 | 1009.5 |
| 20260506082533 | 24 | 150 | 1.6 | 6.4 | 0.00 | 0.00 | 0.00 | 97 | 1009.5 |
| 20260506082033 | 24 | 150 | 3.2 | 8.0 | 0.00 | 0.00 | 0.00 | 97 | 1009.6 |
| 20260506081547 | 24 | 152 | 4.8 | 8.0 | 0.00 | 0.00 | 0.00 | 97 | 1009.7 |
| 20260506081030 | 24 | 153 | 4.8 | 8.0 | 0.00 | 0.00 | 0.00 | 97 | 1009.7 |
| 20260506080530 | 24 | 142 | 1.6 | 4.8 | 0.00 | 0.00 | 0.00 | 97 | 1009.6 |
| 20260506073046 | 24 | 145 | 1.6 | 3.2 | 0.00 | 0.00 | 0.00 | 97 | 1010.0 |
| 20260506072528 | 24 | 0 | 1.6 | 3.2 | 0.00 | 0.00 | 0.00 | 97 | 1010.1 |
| 20260506072028 | 24 | 149 | 1.6 | 8.0 | 0.00 | 0.00 | 0.00 | 97 | 1010.1 |
| 20260506071550 | 24 | 148 | 3.2 | 8.0 | 0.00 | 0.00 | 0.00 | 97 | 1010.2 |
| 20260506071029 | 24 | 150 | 3.2 | 8.0 | 0.00 | 0.00 | 0.00 | 97 | 1010.2 |
| 20260506070529 | 24 | 155 | 3.2 | 9.7 | 0.00 | 0.00 | 0.00 | 97 | 1010.2 |
| 20260506062028 | 24 | 152 | 6.4 | 11.3 | 0.00 | 0.00 | 0.00 | 96 | 1010.1 |
| 20260506061544 | 24 | 155 | 6.4 | 16.1 | 0.00 | 0.00 | 0.00 | 96 | 1010.1 |
| 20260506061029 | 24 | 140 | 4.8 | 16.1 | 0.00 | 0.00 | 0.00 | 96 | 1010.0 |
| 20260506060529 | 24 | 148 | 3.2 | 11.3 | 0.00 | 0.00 | 0.00 | 96 | 1010.2 |
| 20260506051028 | 24 | 130 | 3.2 | 11.3 | 0.00 | 0.00 | 0.00 | 96 | 1010.2 |
| 20260506050529 | 24 | 150 | 4.8 | 11.3 | 0.00 | 0.00 | 0.00 | 96 | 1010.2 |
| 20260506045030 | 24 | 159 | 3.2 | 12.9 | 0.00 | 0.00 | 0.00 | 96 | 1010.2 |
| 20260506044636 | 24 | 168 | 4.8 | 12.9 | 0.00 | 0.00 | 0.00 | 96 | 1010.0 |
| 20260506044031 | 24 | 196 | 8.0 | 12.9 | 0.00 | 0.00 | 0.00 | 96 | 1010.0 |
| 20260506043529 | 24 | 163 | 3.2 | 9.7 | 0.00 | 0.00 | 0.00 | 95 | 1010.1 |
| 20260506043041 | 24 | 160 | 4.8 | 11.3 | 0.00 | 0.00 | 0.00 | 95 | 1010.2 |
| 20260506042529 | 24 | 165 | 4.8 | 11.3 | 0.00 | 0.00 | 0.00 | 95 | 1010.2 |
| 20260506042028 | 24 | 153 | 4.8 | 16.1 | 0.00 | 0.00 | 0.00 | 95 | 1010.1 |
| 20260506041557 | 24 | 161 | 6.4 | 16.1 | 0.00 | 0.00 | 0.00 | 95 | 1010.1 |
| 20260506041030 | 24 | 155 | 9.7 | 16.1 | 0.00 | 0.00 | 0.00 | 95 | 1010.0 |
| 20260506040528 | 24 | 167 | 8.0 | 14.5 | 0.00 | 0.00 | 0.00 | 95 | 1010.1 |
| 20260506040046 | 24 | 167 | 4.8 | 9.7 | 0.00 | 0.00 | 0.00 | 95 | 1010.1 |
| 20260506035530 | 24 | 155 | 4.8 | 12.9 | 0.00 | 0.00 | 0.00 | 95 | 1010.1 |
| 20260506035029 | 24 | 157 | 6.4 | 12.9 | 0.00 | 0.00 | 0.00 | 95 | 1010.1 |
| 20260506034620 | 24 | 159 | 6.4 | 11.3 | 0.00 | 0.00 | 0.00 | 95 | 1010.1 |
| 20260506034029 | 24 | 148 | 6.4 | 19.3 | 0.00 | 0.00 | 0.00 | 95 | 1010.1 |
| 20260506033528 | 24 | 165 | 3.2 | 19.3 | 0.00 | 0.00 | 0.00 | 95 | 1010.1 |
| 20260506033041 | 24 | 137 | 6.4 | 17.7 | 0.00 | 0.00 | 0.00 | 95 | 1010.0 |
| 20260506032528 | 24 | 168 | 3.2 | 12.9 | 0.00 | 0.00 | 0.00 | 95 | 1010.0 |
| 20260506032028 | 25 | 157 | 4.8 | 14.5 | 0.00 | 0.00 | 0.00 | 95 | 1009.9 |
| 20260506031542 | 25 | 163 | 6.4 | 14.5 | 0.00 | 0.00 | 0.00 | 95 | 1009.9 |
| 20260506031030 | 24 | 128 | 6.4 | 17.7 | 0.00 | 0.00 | 0.00 | 95 | 1009.8 |
| 20260506030528 | 25 | 177 | 8.0 | 17.7 | 0.00 | 0.00 | 0.00 | 95 | 1009.8 |
| 20260506030046 | 24 | 163 | 8.0 | 16.1 | 0.00 | 0.00 | 0.00 | 95 | 1009.8 |
| 20260506025533 | 24 | 159 | 6.4 | 14.5 | 0.00 | 0.00 | 0.00 | 95 | 1009.9 |
| 20260506025026 | 24 | 152 | 6.4 | 12.9 | 0.00 | 0.00 | 0.00 | 95 | 1009.8 |
| 20260506024546 | 24 | 155 | 3.2 | 19.3 | 0.00 | 0.00 | 0.00 | 95 | 1009.7 |
| 20260506024029 | 24 | 148 | 8.0 | 19.3 | 0.00 | 0.00 | 0.00 | 95 | 1009.6 |
| 20260506023526 | 24 | 158 | 4.8 | 11.3 | 0.00 | 0.00 | 0.00 | 95 | 1009.4 |
| 20260506023103 | 24 | 157 | 4.8 | 11.3 | 0.00 | 0.00 | 0.00 | 96 | 1009.4 |
| 20260506022527 | 24 | 150 | 3.2 | 12.9 | 0.00 | 0.00 | 0.00 | 96 | 1009.4 |
| 20260506022029 | 24 | 155 | 4.8 | 12.9 | 0.00 | 0.00 | 0.00 | 96 | 1009.2 |
| 20260506021541 | 24 | 147 | 6.4 | 12.9 | 0.00 | 0.00 | 0.00 | 96 | 1009.2 |
| 20260506021029 | 24 | 161 | 3.2 | 8.0 | 0.00 | 0.00 | 0.00 | 96 | 1009.2 |
| 20260506020528 | 24 | 161 | 3.2 | 11.3 | 0.00 | 0.00 | 0.00 | 96 | 1009.2 |
| 20260506020045 | 24 | 159 | 4.8 | 9.7 | 0.00 | 0.00 | 0.00 | 95 | 1009.0 |
| 20260506015528 | 24 | 172 | 4.8 | 9.7 | 0.00 | 0.00 | 0.00 | 95 | 1009.0 |
| 20260506015031 | 24 | 167 | 4.8 | 9.7 | 0.00 | 0.00 | 0.00 | 95 | 1009.1 |
| 20260506014540 | 24 | 167 | 4.8 | 9.7 | 0.00 | 0.00 | 0.00 | 95 | 1009.0 |
| 20260506014028 | 24 | 161 | 3.2 | 11.3 | 0.00 | 0.00 | 0.00 | 95 | 1009.0 |
| 20260506013528 | 24 | 181 | 3.2 | 12.9 | 0.00 | 0.00 | 0.00 | 95 | 1008.8 |
| 20260506013049 | 24 | 159 | 4.8 | 16.1 | 0.00 | 0.00 | 0.00 | 94 | 1008.7 |
| 20260506012529 | 24 | 159 | 8.0 | 16.1 | 0.00 | 0.00 | 0.00 | 94 | 1008.7 |
| 20260506012028 | 24 | 181 | 6.4 | 16.1 | 0.00 | 0.00 | 0.00 | 94 | 1008.6 |
| 20260506011544 | 25 | 143 | 3.2 | 16.1 | 0.00 | 0.00 | 0.00 | 94 | 1008.4 |
| 20260506011029 | 25 | 149 | 8.0 | 14.5 | 0.00 | 0.00 | 0.00 | 94 | 1008.4 |
| 20260506010525 | 25 | 163 | 4.8 | 17.7 | 0.00 | 0.00 | 0.00 | 93 | 1008.5 |
| 20260506010054 | 25 | 156 | 8.0 | 17.7 | 0.00 | 0.00 | 0.00 | 93 | 1008.3 |
| 20260506005526 | 25 | 153 | 6.4 | 17.7 | 0.00 | 0.00 | 0.00 | 93 | 1008.3 |
| 20260506005028 | 25 | 169 | 6.4 | 20.9 | 0.00 | 0.00 | 0.00 | 92 | 1008.3 |
| 20260506004600 | 25 | 145 | 9.7 | 20.9 | 0.00 | 0.00 | 0.00 | 92 | 1008.1 |
| 20260506004025 | 25 | 160 | 4.8 | 16.1 | 0.00 | 0.00 | 0.00 | 92 | 1008.2 |
| 20260506003528 | 25 | 180 | 9.7 | 16.1 | 0.00 | 0.00 | 0.00 | 92 | 1008.1 |
| 20260506003051 | 25 | 161 | 8.0 | 17.7 | 0.00 | 0.00 | 0.00 | 92 | 1008.1 |
| 20260506002529 | 25 | 143 | 8.0 | 17.7 | 0.00 | 0.00 | 0.00 | 92 | 1008.2 |
| 20260506002029 | 25 | 163 | 6.4 | 17.7 | 0.00 | 0.00 | 0.00 | 92 | 1008.3 |
| 20260506001542 | 25 | 142 | 3.2 | 17.7 | 0.00 | 0.00 | 0.00 | 91 | 1008.3 |
| 20260506001028 | 25 | 175 | 3.2 | 12.9 | 0.00 | 0.00 | 0.00 | 91 | 1008.4 |
| 20260506000529 | 25 | 159 | 4.8 | 19.3 | 0.00 | 0.00 | 0.00 | 91 | 1008.3 |
| 20260506000047 | 25 | 154 | 8.0 | 20.9 | 0.00 | 0.00 | 0.00 | 91 | 1008.2 |
| 20260505235529 | 25 | 166 | 9.7 | 20.9 | 0.00 | 0.00 | 0.00 | 91 | 1008.2 |
| 20260505235029 | 25 | 155 | 6.4 | 19.3 | 0.00 | 0.00 | 0.00 | 91 | 1008.2 |
| 20260505234604 | 25 | 155 | 8.0 | 20.9 | 0.00 | 0.00 | 0.00 | 91 | 1008.3 |
| 20260505234048 | 25 | 163 | 8.0 | 24.1 | 0.00 | 0.00 | 0.00 | 91 | 1008.2 |
| 20260505233532 | 25 | 188 | 8.0 | 24.1 | 0.00 | 0.00 | 0.00 | 90 | 1008.3 |
| 20260505233042 | 25 | 159 | 6.4 | 22.5 | 0.00 | 0.00 | 0.00 | 90 | 1008.3 |
| 20260505232527 | 25 | 188 | 4.8 | 17.7 | 0.00 | 0.00 | 0.00 | 90 | 1008.3 |
| 20260505232030 | 25 | 175 | 8.0 | 22.5 | 0.00 | 0.00 | 0.00 | 90 | 1008.3 |
| 20260505231545 | 25 | 171 | 8.0 | 24.1 | 0.00 | 0.00 | 0.00 | 90 | 1008.2 |
| 20260505231027 | 25 | 165 | 8.0 | 24.1 | 0.00 | 0.00 | 0.00 | 89 | 1008.3 |
| 20260505230528 | 26 | 204 | 11.3 | 22.5 | 0.00 | 0.00 | 0.00 | 89 | 1008.4 |
| 20260505230045 | 26 | 163 | 9.7 | 25.7 | 0.00 | 0.00 | 0.00 | 89 | 1008.3 |
| 20260505225529 | 26 | 193 | 6.4 | 25.7 | 0.00 | 0.00 | 0.00 | 88 | 1008.3 |
| 20260505225033 | 26 | 157 | 8.0 | 25.7 | 0.00 | 0.00 | 0.00 | 88 | 1008.3 |
| 20260505224542 | 26 | 140 | 9.7 | 19.3 | 0.00 | 0.00 | 0.00 | 87 | 1008.2 |
| 20260505224027 | 26 | 153 | 6.4 | 14.5 | 0.00 | 0.00 | 0.00 | 87 | 1008.4 |
| 20260505223527 | 26 | 188 | 3.2 | 16.1 | 0.00 | 0.00 | 0.00 | 87 | 1008.5 |
| 20260505223047 | 26 | 171 | 8.0 | 16.1 | 0.00 | 0.00 | 0.00 | 87 | 1008.5 |
| 20260505222527 | 26 | 166 | 4.8 | 16.1 | 0.00 | 0.00 | 0.00 | 87 | 1008.5 |
| 20260505222027 | 26 | 144 | 3.2 | 17.7 | 0.00 | 0.00 | 0.00 | 88 | 1008.5 |
| 20260505221543 | 26 | 200 | 9.7 | 19.3 | 0.00 | 0.00 | 0.00 | 87 | 1008.5 |
| 20260505221026 | 26 | 169 | 8.0 | 19.3 | 0.00 | 0.00 | 0.00 | 87 | 1008.5 |
| 20260505220526 | 26 | 153 | 11.3 | 19.3 | 0.00 | 0.00 | 0.00 | 88 | 1008.5 |
| 20260505220059 | 26 | 211 | 1.6 | 12.9 | 0.00 | 0.00 | 0.00 | 89 | 1008.6 |
| 20260505215528 | 26 | 176 | 6.4 | 11.3 | 0.00 | 0.00 | 0.00 | 89 | 1008.7 |
| 20260505215027 | 26 | 182 | 3.2 | 16.1 | 0.00 | 0.00 | 0.00 | 89 | 1008.7 |
| 20260505214541 | 26 | 175 | 6.4 | 16.1 | 0.00 | 0.00 | 0.00 | 89 | 1008.8 |
| 20260505214027 | 26 | 150 | 6.4 | 16.1 | 0.00 | 0.00 | 0.00 | 89 | 1008.8 |
| 20260505213527 | 26 | 173 | 4.8 | 12.9 | 0.00 | 0.00 | 0.00 | 89 | 1008.8 |
| 20260505213041 | 26 | 169 | 3.2 | 11.3 | 0.00 | 0.00 | 0.00 | 88 | 1008.8 |
| 20260505212527 | 26 | 196 | 4.8 | 12.9 | 0.00 | 0.00 | 0.00 | 88 | 1008.9 |
| 20260505212027 | 26 | 180 | 4.8 | 12.9 | 0.00 | 0.00 | 0.00 | 89 | 1008.9 |
| 20260505211548 | 26 | 153 | 3.2 | 17.7 | 0.00 | 0.00 | 0.00 | 89 | 1009.0 |
| 20260505211027 | 26 | 165 | 4.8 | 17.7 | 0.00 | 0.00 | 0.00 | 88 | 1009.0 |
| 20260505210526 | 26 | 178 | 6.4 | 17.7 | 0.00 | 0.00 | 0.00 | 87 | 1009.0 |
| 20260505210046 | 26 | 157 | 6.4 | 16.1 | 0.00 | 0.00 | 0.00 | 87 | 1009.3 |
| 20260505205527 | 26 | 159 | 3.2 | 16.1 | 0.00 | 0.00 | 0.00 | 88 | 1009.4 |
| 20260505205030 | 26 | 187 | 8.0 | 16.1 | 0.00 | 0.00 | 0.00 | 88 | 1009.4 |
| 20260505204542 | 26 | 197 | 3.2 | 16.1 | 0.00 | 0.00 | 0.00 | 88 | 1009.6 |
| 20260505204027 | 26 | 182 | 4.8 | 16.1 | 0.00 | 0.00 | 0.00 | 87 | 1009.7 |
| 20260505203527 | 26 | 173 | 6.4 | 14.5 | 0.00 | 0.00 | 0.00 | 88 | 1009.8 |
| 20260505203041 | 26 | 167 | 6.4 | 17.7 | 0.00 | 0.00 | 0.00 | 87 | 1009.7 |
| 20260505202530 | 26 | 210 | 8.0 | 17.7 | 0.00 | 0.00 | 0.00 | 88 | 1009.8 |
| 20260505202031 | 26 | 164 | 4.8 | 12.9 | 0.00 | 0.00 | 0.00 | 88 | 1009.8 |
| 20260505201544 | 26 | 163 | 1.6 | 11.3 | 0.00 | 0.00 | 0.00 | 89 | 1009.9 |
| 20260505201030 | 26 | 157 | 3.2 | 11.3 | 0.00 | 0.00 | 0.00 | 89 | 1010.0 |
| 20260505200532 | 26 | 168 | 6.4 | 11.3 | 0.00 | 0.00 | 0.00 | 89 | 1009.9 |
| 20260505200046 | 26 | 177 | 3.2 | 14.5 | 0.00 | 0.00 | 0.00 | 89 | 1010.0 |
| 20260505195530 | 26 | 209 | 6.4 | 14.5 | 0.00 | 0.00 | 0.00 | 89 | 1010.0 |
| 20260505195030 | 26 | 132 | 6.4 | 12.9 | 0.00 | 0.00 | 0.00 | 88 | 1010.1 |
| 20260505194545 | 26 | 166 | 6.4 | 12.9 | 0.00 | 0.00 | 0.00 | 89 | 1010.0 |
| 20260505194030 | 26 | 175 | 6.4 | 14.5 | 0.00 | 0.00 | 0.00 | 88 | 1010.0 |